sat.trackr.live / text

‹ back to catalog

STARLINK-1830

NORAD 46727 · 2020-073BK

PAYLOAD ACTIVE UNKNOWN

§ Identity

Operator
Country
US
Launch date
2020-10-18
Launch site
AFETR
Launch vehicle
Mass (kg)
RCS (m²)

Purposes: comms

External: N2YO · Heavens-Above · Gunter

§ Orbital elements

Epoch: 2026-05-24T18:45:23.022144Z

Period
91.78 min
Inclination
53.0364°
Eccentricity
0.0006864
Mean motion
15.68906006 rev/d
Perigee alt
357.4 km
Apogee alt
366.7 km
Semi-major
6,740.2 km
B*
5.6251e-4
RAAN
171.0358°
Arg perigee
354.1630°
Mean anomaly
5.9305°
Rev number
30,985

§ Raw data

STARLINK-18301 46727U 20073BK  26144.78151646  .00065943  00000+0  56251-3 0  99912 46727  53.0364 171.0358 0006864 354.1630   5.9305 15.68906006309858

JSON: /api/v1/satellites/46727 · /tle

For live sub-satellite position, see the globe view (requires WebGL).

§ Visibility from observer

Set your observer location to see the next 7 days of passes ≥ 10°. The values pass through the URL so the page stays shareable.

No JS? Fill the form by hand. The geolocation button needs JavaScript.